FLOCK 4A-1 (44079 NORAD) Tracking and Keplerian Element Data

This shows tracking and keplerian element data for the satellite.

Feedback or suggestion? Click here.




ElementValue
Catalog44079
NameFLOCK 4A-1
Epoch Orbit8835
Epoch Day307.11853195
Epoch Year2020
RAAN5.793
Inclination97.3933
Eccentricity0.0013426
Argument of Perigee45.9649
Mean Anonmoly314.2691
Mean Motion15.23356482
Decay Rate3.849E-05
L11 44079U 19018B 20307.11853195 .00003849 00000-0 16460-3 0 9992
L22 44079 97.3933 5.7930 0013426 45.9649 314.2691 15.23356482 88356



Live tracking and technical data element details for FLOCK 4A-1 (NORAD 44079). FLOCK 4A-1 can be tracked NOW for your location showing map with azimuth and elevation plus other details from your city location.







IsCatalogInMostPopularTable: catalog: 44079, numindb: 299
Update: records affected: 1



GetName: 44079 FLOCK 4A-1

Hit Count: updated at: Thu, 22 May 2025 03:04:44 GMT